Regional Weather Roundup
Issued by NWS Little Rock, AR

Home | Current Version | Previous Version | Text Only | Print | Product List | Glossary Off
Versions: 1 2 3 4 5 6 7 8 9 10 11 12 13 14 15 16 17 18 19 20 21 22 23 24 25 26 27 28 29 30 31

000
ASUS44 KLZK 220205
RWRLZK

WEATHER ROUNDUP FOR ARKANSAS
NATIONAL WEATHER SERVICE LITTLE ROCK AR
900 PM CDT WED JUN 21 2017

NOTE: "FAIR" INDICATES FEW OR NO CLOUDS BELOW 12,000 FEET WITH NO
SIGNIFICANT WEATHER AND/OR OBSTRUCTIONS TO VISIBILITY.

ARZ001-003-010-029-220300-
NORTHWEST ARKANSAS

CITY           SKY/WX    TMP DP  RH WIND       PRES   REMARKS
FAYETTEVILLE   CLEAR     72  67  84 E3        29.90F
FORT SMITH     MOCLDY    80  68  66 E8        29.84F
HARRISON       PTCLDY    75  67  76 SE8       29.92F
BENTONVILLE    CLEAR     77  61  57 SE5       29.91F
ROGERS         PTCLDY    75  62  64 SE8       29.91F
SILOAM SPGS    CLOUDY    73  63  68 SE6       29.89S
HIGHFILL       CLOUDY    77  61  57 E6        29.90F
SPRINGDALE     CLEAR     75  63  64 E5        29.92F
$$

ARZ004-005-016-220300-
NORTH CENTRAL ARKANSAS

CITY           SKY/WX    TMP DP  RH WIND       PRES   REMARKS
BATESVILLE     CLOUDY    77  70  78 SE3       29.90F
FLIPPIN        PTCLDY    77  66  69 CALM      29.88F
MTN HOME       PTCLDY    76  69  79 SE3       29.91F
$$

ARZ040-041-220300-
WEST CENTRAL ARKANSAS

CITY           SKY/WX    TMP DP  RH WIND       PRES   REMARKS
MENA           CLOUDY    81  73  78 E10       29.87  HX  85
MOUNT IDA      CLOUDY    79  68  69 E3        29.85S
$$

ARZ009-017-025-026-028-220300-
NORTHEAST ARKANSAS

CITY           SKY/WX    TMP DP  RH WIND       PRES   REMARKS
CORNING        FAIR      81  72  74 SE8       29.91F
JONESBORO      MOCLDY    80  71  74 SE6       29.91S
WALNUT RIDGE   PTCLDY    81  66  61 SE8       29.90F
BLYTHEVILLE    PTCLDY    81  70  69 SE8       29.93F
$$

ARZ022-023-033-042-044-220300-
CENTRAL ARKANSAS

CITY           SKY/WX    TMP DP  RH WIND       PRES   REMARKS
LITTLE ROCK    LGT RAIN  76  72  87 SE16      29.88R
N LITTLE ROCK    N/A     77  70  77 E12G20    29.87R
JACKSONVILLE   CLOUDY    78  70  77 E14       29.88R
CONWAY           N/A     79  70  73 E6        29.85F
SEARCY         CLOUDY    76  73  91 E6        29.91S
HOT SPRINGS    CLOUDY    78  71  79 E9G20     29.86S
RUSSELLVILLE   CLOUDY    79  70  74 VRB3      29.87S
CLINTON        MOCLDY    77  72  83 CALM      29.91S
$$

ARZ036-220300-
EAST ARKANSAS

CITY           SKY/WX    TMP DP  RH WIND       PRES   REMARKS
WEST MEMPHIS   MOCLDY    79  71  76 SE14      29.90S
$$

ARZ050-053-066-070-073-220300-
SOUTHWEST ARKANSAS

CITY           SKY/WX    TMP DP  RH WIND       PRES   REMARKS
ARKADELPHIA    CLOUDY    76  72  87 VRB3      29.85S
CAMDEN         CLOUDY    75  70  83 E7        29.83F
TEXARKANA      CLOUDY    76  72  87 E12G17    29.80F
EL DORADO      CLOUDY    74  73  97 NE14      29.82S
DE QUEEN       CLOUDY    79  72  79 E9        29.80S
$$

ARZ056-057-069-220300-
SOUTHEAST ARKANSAS

CITY           SKY/WX    TMP DP  RH WIND       PRES   REMARKS
PINE BLUFF     LGT RAIN  74  72  93 E13       29.86F
STUTTGART      CLOUDY    75  63  64 E8        29.89S
MONTICELLO     CLOUDY    74  72  93 NE9       29.84F

$$






USA.gov is the U.S. government's official web portal to all federal, state and local government web resources and services.